Content
SEND FEEDBACK

Daily
Averages
Monthly
Summary
United States of America

NAPERVILLE, ILLINOIS


Home > North America > United States > Illinois
Elevation: 687 feet     Latitude: 41 49N     Longitude: 088 04W

WEATHER
 
SELECT A DAY
Number of Records: 201,314;   Date Range: 1/1/95 - 12/17/14
 
SHARE

PRINT THIS DATA

[ ← Previous Day ]
WEATHER ALMANAC - JULY 12, 2014
[ Next Day → ]
[ °C ]   °F
Weather ElementAverageHighLow
Temperature74.7 °F79 °F (12:51 pm)70 °F (8:51 am)
Dewpoint66.6 °F73 °F (12:26 pm)57.9 °F (12:51 pm)
Humidity76.3 %87 % (7:35 am)59 % (8:51 pm)
Barometer29.98 in30.10 in (12:51 am)29.83 in (2:51 pm)
Wind Speed11.7 mph25.3 mph (11:14 pm)
Wind Gust36.8 mph (10:44 am)
Weather ElementAverage
Visibility8.7 mi
Wind DirectionSSW (200.6 °)

Weather ElementTotal
Precipitation0.54 in
Cooling Degree Days9.5 (Base 65)
Growing Degree Days24.5 (Base 50)
Averaged from 33 records on July 12, 2014
WEATHER CONDITIONS BREAKOUT
WIND DIRECTION BREAKOUT
WEATHER BY HOUR - JULY 12, 2014
[ °C ]   °F
Local TimeTemperatureDewpointHumidityBarometerVisibilityWind DirectionWind SpeedGust SpeedPrecipitationEventsConditions
12:51 AM72.0 °F59.0 °F64 %30.10 in10.0 miSouth (180°)5.8 mphMostly Cloudy
1:51 AM72.0 °F59.0 °F64 %30.09 in10.0 miSouth (180°)4.6 mphOvercast
2:51 AM73.0 °F57.9 °F59 %30.06 in10.0 miSouth (180°)9.2 mphOvercast
3:51 AM72.0 °F57.9 °F61 %30.04 in10.0 miSouth (180°)6.9 mphMostly Cloudy
4:51 AM73.0 °F59.0 °F61 %30.02 in10.0 miSSE (160°)8.1 mphMostly Cloudy
5:51 AM73.0 °F60.1 °F64 %30.03 in10.0 miSouth (170°)9.2 mphMostly Cloudy
6:51 AM70.0 °F64.9 °F84 %30.03 in8.0 miSSE (160°)4.6 mph0.04 inRainLight Rain
7:26 AM70.0 °F64.9 °F84 %30.05 in10.0 miSouth (170°)8.1 mph0.01 inRainLight Rain
7:51 AM70.0 °F64.9 °F84 %30.04 in10.0 miSouth (170°)11.5 mph0.01 inOvercast
8:51 AM70.0 °F66.0 °F87 %30.04 in5.0 miSSE (160°)8.1 mphOvercast
9:48 AM71.6 °F66.2 °F83 %30.05 in3.0 miSSW (210°)6.9 mph0.02 inRainLight Rain
9:51 AM71.1 °F66.9 °F87 %30.04 in3.0 miSSW (200°)6.9 mph0.03 inRainLight Rain
10:33 AM72.0 °F66.9 °F84 %30.04 in7.0 miSE (140°)13.8 mph0.02 inOvercast
10:51 AM72.0 °F66.9 °F84 %30.04 in8.0 miSSE (160°)12.7 mph0.02 inRainLight Rain
11:51 AM73.0 °F68.0 °F84 %30.00 in10.0 miSouth (180°)16.1 mph0.02 inOvercast
12:36 PM75.9 °F69.1 °F79 %30.02 in10.0 miSW (220°)15.0 mph25.3 mphOvercast
12:51 PM77.0 °F69.8 °F78 %30.01 in10.0 miSW (220°)18.4 mph28.8 mphMostly Cloudy
1:30 PM78.1 °F69.1 °F74 %30.00 in10.0 miWSW (240°)16.1 mph23.0 mphOvercast
1:51 PM78.8 °F68.0 °F69 %30.00 in10.0 miWSW (240°)20.7 mph27.6 mphOvercast
2:51 PM78.1 °F66.9 °F68 %29.98 in10.0 miSW (220°)19.6 mph28.8 mphOvercast
3:51 PM79.0 °F69.1 °F72 %29.96 in10.0 miSW (220°)12.7 mph19.6 mphOvercast
4:51 PM78.8 °F69.8 °F74 %29.95 in10.0 miSW (220°)11.5 mphOvercast
6:51 PM79.0 °F70.0 °F74 %29.92 in10.0 miSW (220°)3.5 mphOvercast
7:10 PM79.0 °F70.0 °F74 %29.92 in10.0 miSSW (210°)5.8 mphOvercast
7:51 PM78.1 °F71.1 °F79 %29.89 in10.0 miSouth (180°)4.6 mph0.00 inRainLight Rain
8:51 PM78.1 °F71.1 °F79 %29.86 in10.0 miSSE (160°)9.2 mph0.00 inOvercast
9:35 PM78.1 °F72.0 °F81 %29.84 in10.0 miSouth (180°)11.5 mphOvercast
9:51 PM78.1 °F72.0 °F81 %29.83 in10.0 miSouth (190°)9.2 mph0.00 inRainLight Rain
10:51 PM79.0 °F73.0 °F82 %29.84 in7.0 miSW (230°)11.5 mph0.03 inRainRain
11:14 PM77.0 °F70.0 °F79 %29.88 in8.0 miWest (280°)25.3 mph36.8 mph0.03 inRain-ThunderstormThunderstorms and Rain
11:22 PM73.9 °F66.9 °F79 %29.89 in4.0 miWest (260°)19.6 mph36.8 mph0.06 inRain-ThunderstormThunderstorms and Rain
11:42 PM72.0 °F66.0 °F81 %29.89 in7.0 miWest (260°)20.7 mph27.6 mph0.11 inRainRain
11:51 PM72.0 °F66.0 °F81 %29.88 in7.0 miWest (270°)18.4 mph31.1 mph0.14 inRainRain
Hourly data recorded from KORD, located miles away from Naperville, Illinois







STORIES FROM OUR PARTNERS